Location: Godiavel Galaoual
(15.2485°N, 12.6604°W)
Time: 08:33:44
(UTC+00:00)

METEOR M2 - Pass Details

Date: 06 August 2021
Orbit: 818 x 827 km, 98.5° (Epoch: 27 September)

Event Time Altitude Azimuth Distance (km) Brightness Sun altitude
Rises 20:37:56 0° 190° (S) 3,354 ? -18.8°
Reaches altitude 10° 20:40:35 10° 202° (SSW) 2,422 ? -19.4°
Maximum altitude 20:45:08 28° 260° (W) 1,488 ? -20.4°
Drops below altitude 10° 20:49:42 10° 319° (NW) 2,422 ? -21.4°
Sets 20:52:22 0° 330° (NNW) 3,355 ? -21.9°
